Location: Haliburton Scout Reserve
(45.0900°N, 78.3200°W)
Time: 18:31:59
(UTC-04:00)

Courier 1B Rocket - Pass Details

Date: 11 February 2023
Orbit: 920 x 1202 km, 28.2° (Epoch: 22 March)

Event Time Altitude Azimuth Distance (km) Brightness Sun altitude
Rises 17:11:16 0° 247° (WSW) 3,669 11.7 3.1°
Reaches altitude 10° 17:15:49 10° 219° (SW) 2,665 8.5 2.4°
Maximum altitude 17:18:12 12° 196° (SSW) 2,482 7.8 2.0°
Drops below altitude 10° 17:20:33 10° 174° (S) 2,622 7.5 1.6°
Sets 17:24:57 0° 145° (SE) 3,543 7.8 0.9°
